EN

Hourly Weather Stryszow

Today, 1 October, Thursday

Time Temperature Precipitation Wind Pressure Humidity
00:00 +12°C° 0.4 mm 1 mps 725 mmHg 97%
01:00 +12°C° 0 mm 1 mps 725 mmHg 97%
02:00 +12°C° 0.1 mm 1 mps 725 mmHg 97%
03:00 +12°C° 0.1 mm 1 mps 724 mmHg 97%
04:00 +12°C° 0.1 mm 1 mps 724 mmHg 97%
05:00 +12°C° 0 mm 1 mps 724 mmHg 97%
06:00 +12°C° 0 mm 1 mps 724 mmHg 97%
07:00 +12°C° 0 mm 1 mps 724 mmHg 97%
08:00 +12°C° 0.3 mm 1 mps 723 mmHg 97%
09:00 +13°C° 0.3 mm 1 mps 723 mmHg 97%
10:00 +13°C° 0.3 mm 1 mps 723 mmHg 97%
11:00 +13°C° 0.8 mm 1 mps 723 mmHg 97%
12:00 +13°C° 0.8 mm 1 mps 723 mmHg 97%
13:00 +13°C° 0.8 mm 1 mps 722 mmHg 97%
14:00 +12°C° 1 mm 1 mps 722 mmHg 97%
15:00 +12°C° 1 mm 1 mps 722 mmHg 97%
16:00 +12°C° 1 mm 1 mps 722 mmHg 97%
17:00 +12°C° 1.1 mm 1 mps 722 mmHg 97%
18:00 +11°C° 1.1 mm 0 mps 722 mmHg 97%
19:00 +11°C° 1.1 mm 0 mps 722 mmHg 97%
20:00 +11°C° 0.3 mm 0 mps 722 mmHg 97%
21:00 +11°C° 0.3 mm 0 mps 722 mmHg 97%
22:00 +11°C° 0.3 mm 0 mps 722 mmHg 97%
23:00 +11°C° 0.2 mm 0 mps 722 mmHg 97%

Tomorrow, 2 October, Friday

Time Temperature Precipitation Wind Pressure Humidity
00:00 +11°C° 0.2 mm 0 mps 722 mmHg 97%
01:00 +11°C° 0.2 mm 0 mps 722 mmHg 97%
02:00 +11°C° 0.1 mm 0 mps 722 mmHg 97%
03:00 +11°C° 0.1 mm 0 mps 722 mmHg 97%
04:00 +11°C° 0.1 mm 0 mps 722 mmHg 97%
05:00 +11°C° 0.2 mm 0 mps 722 mmHg 96%
06:00 +11°C° 0.2 mm 0 mps 722 mmHg 96%
07:00 +11°C° 0.2 mm 0 mps 723 mmHg 96%
08:00 +11°C° 0.1 mm 0 mps 723 mmHg 95%
09:00 +13°C° 0.1 mm 1 mps 723 mmHg 93%
10:00 +13°C° 0.1 mm 1 mps 723 mmHg 92%
11:00 +14°C° 0 mm 1 mps 724 mmHg 87%
12:00 +16°C° 0 mm 1 mps 724 mmHg 83%
13:00 +17°C° 0 mm 2 mps 724 mmHg 78%
14:00 +17°C° 0 mm 2 mps 724 mmHg 78%
15:00 +17°C° 0 mm 2 mps 724 mmHg 78%
16:00 +17°C° 0 mm 2 mps 724 mmHg 79%
17:00 +16°C° 0 mm 2 mps 724 mmHg 81%
18:00 +15°C° 0 mm 2 mps 724 mmHg 84%
19:00 +15°C° 0 mm 2 mps 724 mmHg 86%
20:00 +14°C° 0 mm 2 mps 724 mmHg 87%
21:00 +14°C° 0 mm 2 mps 724 mmHg 88%
22:00 +13°C° 0 mm 3 mps 724 mmHg 89%
23:00 +13°C° 0 mm 3 mps 724 mmHg 89%

Day after tomorrow, 3 October, Saturday

Time Temperature Precipitation Wind Pressure Humidity
00:00 +13°C° 0 mm 3 mps 723 mmHg 88%
01:00 +12°C° 0 mm 3 mps 723 mmHg 88%
02:00 +12°C° 0 mm 3 mps 723 mmHg 87%
03:00 +12°C° 0 mm 3 mps 723 mmHg 86%
04:00 +12°C° 0 mm 3 mps 722 mmHg 85%
05:00 +13°C° 0 mm 3 mps 723 mmHg 84%
06:00 +13°C° 0 mm 3 mps 723 mmHg 82%
07:00 +14°C° 0 mm 3 mps 723 mmHg 80%
08:00 +17°C° 0 mm 4 mps 723 mmHg 72%
09:00 +19°C° 0 mm 5 mps 723 mmHg 64%
10:00 +22°C° 0 mm 5 mps 723 mmHg 56%
11:00 +22°C° 0 mm 6 mps 723 mmHg 53%
12:00 +23°C° 0 mm 6 mps 723 mmHg 50%
13:00 +24°C° 0 mm 7 mps 723 mmHg 48%
14:00 +23°C° 0 mm 6 mps 723 mmHg 53%
15:00 +22°C° 0 mm 5 mps 723 mmHg 58%
16:00 +21°C° 0 mm 4 mps 723 mmHg 63%
17:00 +20°C° 0 mm 4 mps 723 mmHg 67%
18:00 +18°C° 0 mm 3 mps 723 mmHg 71%
19:00 +17°C° 0 mm 3 mps 723 mmHg 76%
20:00 +17°C° 0 mm 3 mps 723 mmHg 75%
21:00 +17°C° 0 mm 3 mps 723 mmHg 75%
22:00 +17°C° 0 mm 3 mps 723 mmHg 74%
23:00 +17°C° 0 mm 3 mps 723 mmHg 73%

4 October, Sunday

Time Temperature Precipitation Wind Pressure Humidity
00:00 +17°C° 0 mm 3 mps 722 mmHg 72%
01:00 +17°C° 0 mm 3 mps 722 mmHg 71%
02:00 +17°C° 0 mm 3 mps 722 mmHg 70%
03:00 +17°C° 0 mm 4 mps 722 mmHg 70%
04:00 +17°C° 0 mm 4 mps 722 mmHg 70%
05:00 +17°C° 0.6 mm 4 mps 722 mmHg 74%
06:00 +15°C° 0.6 mm 4 mps 722 mmHg 78%
07:00 +15°C° 0.6 mm 4 mps 722 mmHg 82%
08:00 +17°C° 0.2 mm 4 mps 723 mmHg 80%
09:00 +18°C° 0.2 mm 4 mps 723 mmHg 77%
10:00 +19°C° 0.2 mm 4 mps 724 mmHg 75%
11:00 +20°C° 0 mm 4 mps 724 mmHg 65%
12:00 +21°C° 0 mm 3 mps 725 mmHg 55%
13:00 +22°C° 0 mm 3 mps 725 mmHg 45%
14:00 +22°C° 0 mm 3 mps 726 mmHg 50%
15:00 +21°C° 0 mm 3 mps 726 mmHg 55%
16:00 +20°C° 0 mm 2 mps 726 mmHg 60%
17:00 +18°C° 0 mm 2 mps 726 mmHg 66%
18:00 +16°C° 0 mm 2 mps 726 mmHg 72%
19:00 +14°C° 0 mm 2 mps 727 mmHg 78%
20:00 +14°C° 0 mm 2 mps 727 mmHg 79%
21:00 +14°C° 0 mm 2 mps 727 mmHg 81%
22:00 +13°C° 0 mm 2 mps 727 mmHg 82%
23:00 +13°C° 0 mm 2 mps 726 mmHg 81%

5 October, Monday

Time Temperature Precipitation Wind Pressure Humidity
00:00 +13°C° 0 mm 1 mps 726 mmHg 79%
01:00 +13°C° 0 mm 1 mps 726 mmHg 78%
02:00 +14°C° 0.1 mm 1 mps 726 mmHg 80%
03:00 +14°C° 0.1 mm 2 mps 726 mmHg 82%
04:00 +14°C° 0.1 mm 2 mps 725 mmHg 84%
05:00 +14°C° 0 mm 2 mps 725 mmHg 85%
06:00 +15°C° 0 mm 2 mps 725 mmHg 87%
07:00 +15°C° 0 mm 2 mps 725 mmHg 89%
08:00 +17°C° 0 mm 2 mps 725 mmHg 80%
09:00 +19°C° 0 mm 3 mps 725 mmHg 70%
10:00 +22°C° 0 mm 3 mps 725 mmHg 61%
11:00 +21°C° 0 mm 4 mps 725 mmHg 60%
12:00 +21°C° 0 mm 5 mps 725 mmHg 59%
13:00 +21°C° 0 mm 5 mps 725 mmHg 58%
14:00 +21°C° 0 mm 4 mps 725 mmHg 61%
15:00 +20°C° 0 mm 3 mps 725 mmHg 64%
16:00 +20°C° 0 mm 2 mps 725 mmHg 67%
17:00 +18°C° 0 mm 2 mps 725 mmHg 72%
18:00 +17°C° 0 mm 2 mps 726 mmHg 77%
19:00 +15°C° 0 mm 2 mps 726 mmHg 83%
20:00 +15°C° 0 mm 2 mps 726 mmHg 83%
21:00 +15°C° 0 mm 2 mps 727 mmHg 84%
22:00 +14°C° 0 mm 2 mps 727 mmHg 84%
23:00 +14°C° 0 mm 1 mps 727 mmHg 84%

6 October, Tuesday

Time Temperature Precipitation Wind Pressure Humidity
00:00 +14°C° 0 mm 1 mps 727 mmHg 85%
01:00 +14°C° 0 mm 1 mps 727 mmHg 85%
02:00 +13°C° 0 mm 1 mps 727 mmHg 86%
03:00 +13°C° 0 mm 1 mps 727 mmHg 86%
04:00 +13°C° 0 mm 1 mps 728 mmHg 87%
05:00 +13°C° 0 mm 1 mps 728 mmHg 87%
06:00 +12°C° 0 mm 0 mps 728 mmHg 86%
07:00 +12°C° 0 mm 0 mps 728 mmHg 86%
08:00 +14°C° 0 mm 0 mps 728 mmHg 81%
09:00 +16°C° 0 mm 1 mps 728 mmHg 76%
10:00 +18°C° 0 mm 1 mps 728 mmHg 71%
11:00 +19°C° 0.1 mm 1 mps 728 mmHg 70%
12:00 +19°C° 0.1 mm 1 mps 728 mmHg 70%
13:00 +19°C° 0.1 mm 1 mps 728 mmHg 69%
14:00 +19°C° 0.2 mm 1 mps 728 mmHg 73%
15:00 +18°C° 0.2 mm 1 mps 728 mmHg 77%
16:00 +18°C° 0.2 mm 1 mps 728 mmHg 81%
17:00 +16°C° 0.1 mm 1 mps 728 mmHg 83%
18:00 +15°C° 0.1 mm 1 mps 728 mmHg 85%
19:00 +13°C° 0.1 mm 0 mps 728 mmHg 88%
20:00 +13°C° 0 mm 0 mps 728 mmHg 88%
21:00 +13°C° 0 mm 0 mps 728 mmHg 89%
22:00 +12°C° 0 mm 0 mps 728 mmHg 89%
23:00 +13°C° 0.1 mm 1 mps 728 mmHg 90%
Show more

We Need Your Consent

Meteoprog and our Service Providers may store and access personal data such as cookies, device identifiers or other similar technologies on your device and process such data to personalise content and ads, as well as provide social media features and to analyse the traffic.

  • Store and/or access information on your device

    Cookies, device identifiers or other information can be stored or accessed on your device for the purposes indicated above.

  • Personalised ads and content, ad and content measurement, audience insights, and products development

    Ads and content can be personalised based on a profile. More data can be added to better personalise ads and content. Ad and content performance can be measured. Insights about the audience who saw the ads and content can be derived. Such data can be used to develop or improve user’s experience, systems and software.

By clicking ‘I Agree’ you will allow the use of indicated cookies, device identifiers, web beacons or other similar technologies. Your settings can be changed in the browser on your device.

For certain purposes, legitimate interests may be relied on, rather than consent. You can read more about this in our Privacy and Cookie Policy.